Home   Weather   Stornoway   Past weeks

Flag for United Kingdom Past Weather in Stornoway, Scotland, United Kingdom — Yesterday and Last 2 Weeks

Now
50 °F

Broken clouds.


Feels Like: 44 °F
Forecast: N/A
Wind: 16 mph from Southwest

Location: Stornoway

Current Time: Jan 19, 2017 at 3:24:25 pm

Latest Report: Jan 19, 2017 at 2:50 pm


Visibility: N/A

Pressure: 30.45 "Hg

Humidity: 82%

Dew Point: 45 °F

Location of StornowayLocation

Past Weather in Stornoway — Graph

°F

Stornoway Temperature Yesterday

Maximum temperature yesterday: 52 °F (at 12:20 pm)
Minimum temperature yesterday: 48 °F (at 12:20 am)
Average temperature yesterday: 49 °F

High & Low Weather Summary for the Past Weeks

 TemperatureHumidityPressure
High52 °F (Jan 8, 12:50 pm)100% (Jan 6, 9:50 am)30.48 "Hg (Jan 6, 9:50 am)
Low30 °F (Jan 4, 10:20 pm)66% (Jan 11, 5:20 am)29.03 "Hg (Jan 10, 11:20 pm)
Average44 °F89%29.98 "Hg
* Reported Jan 4 2:20 pm — Jan 19 2:20 pm, Stornoway, Weather by CustomWeather, © 2017

Note: Actual official high and low records may vary slightly from our data, if they occured in-between our weather recording intervals... More about our weather records

Advertising

Stornoway Weather History for the Previous 24 Hours

Scroll right to see more
 ConditionsComfort  
Time TempWeatherWind HumidityBarometerVisibility
2:20 pm
Thu, Jan 19
50 °FBroken clouds.16 mph82%30.45 "HgN/A
1:50 pm50 °FBroken clouds.14 mph82%30.45 "HgN/A
1:20 pm50 °FPartly sunny.14 mph82%30.48 "HgN/A
12:50 pm50 °FPartly sunny.10 mph88%30.48 "HgN/A
12:20 pm50 °FPartly sunny.13 mph88%30.48 "HgN/A
11:50 am50 °FPartly sunny.12 mph88%30.48 "HgN/A
11:20 am50 °FPartly sunny.8 mph88%30.48 "HgN/A
10:50 am48 °FScattered showers. Broken clouds.9 mph94%30.48 "HgN/A
10:20 am48 °FSprinkles. Broken clouds.13 mph94%30.48 "HgN/A
9:50 am50 °FScattered showers. Broken clouds.16 mph88%30.48 "HgN/A
9:20 am48 °FScattered showers. Broken clouds.15 mph94%30.48 "HgN/A
8:50 am50 °FPassing clouds.13 mph88%30.48 "HgN/A
8:20 am50 °FPartly cloudy.9 mph82%30.48 "HgN/A
7:50 am50 °FPartly cloudy.10 mph82%30.45 "HgN/A
7:20 am50 °FPartly cloudy.17 mph82%30.45 "HgN/A
6:50 am50 °FPartly cloudy.16 mph88%30.45 "HgN/A
6:20 am48 °FPartly cloudy.21 mph94%30.42 "HgN/A
5:50 am50 °FPassing clouds.16 mph88%30.42 "HgN/A
5:20 am50 °FPassing clouds.13 mph82%30.45 "HgN/A
4:50 am50 °FPassing clouds.10 mph82%30.45 "HgN/A
4:20 am50 °FOvercast.13 mph82%30.45 "HgN/A
3:50 am50 °FPassing clouds.13 mph82%30.45 "HgN/A
3:20 am50 °FOvercast.12 mph82%30.45 "HgN/A
2:50 am48 °FPassing clouds.14 mph87%30.45 "HgN/A
2:20 am48 °FPassing clouds.16 mph87%30.42 "HgN/A
1:50 am48 °FOvercast.14 mph94%30.42 "HgN/A
1:20 am48 °FPassing clouds.13 mph87%30.42 "HgN/A
12:50 am48 °FPassing clouds.13 mph87%30.45 "HgN/A
12:20 am48 °FPassing clouds.18 mph87%30.45 "HgN/A
11:50 pm
Wed, Jan 18
48 °FPassing clouds.21 mph87%30.42 "HgN/A
11:20 pm48 °FPassing clouds.17 mph87%30.42 "HgN/A
10:50 pm48 °FPassing clouds.17 mph94%30.42 "HgN/A
10:20 pm50 °FOvercast.17 mph88%30.42 "HgN/A
9:50 pm50 °FCool.17 mph88%30.42 "HgN/A
9:20 pm48 °FPassing clouds.15 mph94%30.42 "HgN/A
8:50 pm50 °FOvercast.15 mph88%30.42 "HgN/A
8:20 pm50 °FPassing clouds.15 mph88%30.42 "HgN/A
7:50 pm50 °FPassing clouds.13 mph88%30.42 "HgN/A
7:20 pm50 °FPartly cloudy.15 mph88%30.42 "HgN/A
6:50 pm50 °FPartly cloudy.15 mph88%30.42 "HgN/A
6:20 pm50 °FPartly cloudy.16 mph88%30.42 "HgN/A
5:50 pm50 °FPartly cloudy.15 mph88%30.42 "HgN/A
5:20 pm50 °FPartly cloudy.18 mph88%30.42 "HgN/A
4:50 pm50 °FPartly cloudy.17 mph88%30.42 "HgN/A
4:20 pm50 °FPartly cloudy.18 mph88%30.39 "HgN/A
3:50 pm50 °FPartly sunny.18 mph88%30.39 "HgN/A
3:20 pm50 °FPartly sunny.17 mph88%30.39 "HgN/A
Weather by CustomWeather, © 2017

See weather overviewHow to use our weather pages